Flag for U.S.A. Weather past 2 weeks in Palestine, Texas, U.S.A.

Now
89 °F

Sunny.


Feels Like: 94 °F
Forecast: 73 / 91 °F
Wind: 7 mph from West

Location: Cherokee County Airport

Current Time: Jul 28, 2014 at 12:16:44 PM

Latest Report: Jul 28, 2014 at 11:55 AM


Visibility: 10 mi

Pressure: 30.16 "Hg

Humidity: 55%

Dew point: 71 °F

Location of PalestineLocation

Historic Weather in Palestine — Graph

°F

Palestine temperature yesterday

Maximum temperature yesterday: 94 °F (at 4:15 PM)
Minimum temperature yesterday: 76 °F (at 5:15 AM)
Average temperature yesterday: 84 °F

Past Weeks' High & Low Weather Summary

 TemperatureHumidityPressure
High95 °F (Jul 13, 3:15 PM)98% (Jul 20, 8:55 AM)30.20 "Hg (Jul 20, 8:55 AM)
Low65 °F (Jul 20, 6:55 AM)37% (Jul 13, 5:35 PM)29.90 "Hg (Jul 17, 6:35 PM)
Average79 °F76%30.04 "Hg
* Reported Jul 13 11:15 AM — Jul 28 11:15 AM, Palestine, Weather by CustomWeather, © 2014

Note: Actual official high and low records may vary slightly from our data, if they occured in-between our weather recording intervals... More about our weather records

Advertising

Palestine weather history for previous 24 hours

 ConditionsComfort  
Time TempWeatherWind HumidityBarometerVisibility
11:15 AM
Jul 28
87 °FScattered clouds.5 mph59%30.16 "Hg10 mi
10:55 AM86 °FSunny.7 mph61%30.16 "Hg10 mi
10:35 AM85 °FScattered clouds.6 mph66%30.16 "Hg10 mi
10:15 AM83 °FPartly sunny.5 mph67%30.17 "Hg10 mi
9:55 AM83 °FPartly sunny.6 mph67%30.17 "Hg10 mi
9:35 AM83 °FSunny.8 mph68%30.15 "Hg10 mi
9:15 AM82 °FScattered clouds.6 mph71%30.15 "Hg10 mi
8:55 AM81 °FPartly sunny.7 mph75%30.14 "Hg10 mi
8:35 AM80 °FSunny.6 mph80%30.13 "Hg10 mi
8:15 AM79 °FSunny.6 mph85%30.12 "Hg10 mi
7:55 AM78 °FSunny.5 mph88%30.12 "Hg10 mi
7:35 AM77 °FSunny.5 mph90%30.11 "Hg10 mi
7:15 AM76 °FClear.5 mph91%30.11 "Hg7 mi
6:55 AM76 °FClear.5 mph91%30.11 "Hg7 mi
6:35 AM76 °FPassing clouds.6 mph91%30.11 "Hg10 mi
6:15 AM76 °FPartly cloudy.5 mph90%30.10 "Hg10 mi
5:55 AM77 °FPassing clouds.5 mph90%30.10 "Hg10 mi
5:35 AM77 °FPassing clouds.5 mph89%30.10 "Hg10 mi
5:15 AM77 °FPassing clouds.5 mph88%30.10 "Hg10 mi
4:55 AM77 °FPassing clouds.5 mph88%30.09 "Hg10 mi
4:35 AM77 °FClear.5 mph88%30.09 "Hg10 mi
4:15 AM78 °FClear.6 mph87%30.08 "Hg10 mi
3:55 AM78 °FClear.6 mph87%30.08 "Hg10 mi
3:35 AM78 °FClear.6 mph86%30.07 "Hg10 mi
3:15 AM79 °FClear.6 mph85%30.07 "Hg10 mi
2:55 AM79 °FClear.7 mph86%30.07 "Hg10 mi
2:35 AM79 °FClear.7 mph87%30.07 "Hg10 mi
2:15 AM79 °FClear.8 mph87%30.06 "Hg10 mi
1:55 AM79 °FClear.8 mph87%30.06 "Hg10 mi
1:35 AM80 °FClear.9 mph85%30.06 "Hg10 mi
1:15 AM80 °FClear.7 mph83%30.07 "Hg10 mi
12:55 AM80 °FClear.6 mph81%30.06 "Hg10 mi
12:35 AM82 °FClear.7 mph74%30.07 "Hg10 mi
12:15 AM82 °FClear.8 mph71%30.06 "Hg10 mi
11:55 PM
Jul 27
83 °FClear.6 mph70%30.06 "Hg10 mi
11:35 PM83 °FClear.6 mph69%30.06 "Hg10 mi
11:15 PM83 °FClear.5 mph69%30.06 "Hg10 mi
10:55 PM83 °FClear.6 mph71%30.07 "Hg10 mi
10:35 PM83 °FClear.3 mph75%30.07 "Hg10 mi
10:15 PM83 °FClear.3 mph76%30.07 "Hg10 mi
9:15 PM84 °FSunny.5 mph74%30.04 "Hg10 mi
8:55 PM85 °FSunny.5 mph69%30.04 "Hg10 mi
8:35 PM86 °FSunny.No wind66%30.04 "Hg10 mi
8:15 PM87 °FSunny.No wind62%30.04 "Hg10 mi
7:55 PM88 °FSunny.No wind58%30.05 "Hg10 mi
7:35 PM89 °FSunny.No wind56%30.05 "Hg10 mi
7:15 PM90 °FSunny.No wind54%30.05 "Hg10 mi
6:15 PM92 °FSunny.7 mph48%30.05 "Hg10 mi
5:55 PM92 °FSunny.7 mph48%30.05 "Hg10 mi
5:35 PM92 °FSunny.8 mph47%30.05 "Hg10 mi
5:15 PM92 °FSunny.8 mph47%30.05 "Hg10 mi
4:55 PM92 °FSunny.8 mph45%30.05 "Hg10 mi
4:35 PM93 °FSunny.5 mph40%30.06 "Hg10 mi
4:15 PM94 °FSunny.5 mph44%30.06 "Hg10 mi
3:35 PM93 °FSunny.6 mph46%30.06 "Hg10 mi
3:15 PM92 °FSunny.5 mph46%30.07 "Hg10 mi
2:55 PM92 °FSunny.8 mph46%30.07 "Hg10 mi
2:35 PM92 °FSunny.8 mph49%30.07 "Hg10 mi
2:15 PM92 °FSunny.7 mph46%30.08 "Hg10 mi
1:55 PM91 °FSunny.8 mph50%30.08 "Hg10 mi
1:35 PM91 °FSunny.6 mph51%30.09 "Hg10 mi
1:15 PM90 °FSunny.6 mph52%30.09 "Hg10 mi
12:55 PM89 °FSunny.6 mph51%30.11 "Hg10 mi
12:35 PM89 °FSunny.8 mph51%30.11 "Hg10 mi
12:15 PM88 °FSunny.8 mph53%30.11 "Hg10 mi
Weather by CustomWeather, © 2014

See weather overviewHow to use our weather pages